FW0903 Weather Reports


time (UTC)temp
C
wind
direction
speed
KPH
gust
KPH
rain 1hr
cm
rain 24hr
cm
rain mn
cm
humidity
%
barometer
mb
20260504081020 10 0.0 4.8 0.05 13.51 0.76 71 1008.7
20260504050019 11 158 1.6 22.5 0.30 13.06 0.30 67 1010.7
20260504045019 11 0.0 3.2 0.43 12.95 0.20 67 1010.8
20260504044100 11 0.0 3.2 0.79 12.95 0.20 66 1010.9
20260504043040 11 0.0 3.2 1.04 12.85 0.10 66 1010.8
20260504042019 11 0.0 3.2 1.12 12.85 0.10 65 1010.9
20260504041020 11 0.0 3.2 1.14 12.83 0.08 64 1010.9
20260504040020 11 180 3.2 20.9 1.19 12.75 12.75 64 1011.0
20260504035020 11 0.0 4.8 1.07 12.52 12.52 64 1011.3
20260504034018 11 180 1.6 16.1 0.74 12.17 12.17 64 1011.4
20260504033020 11 158 3.2 20.9 0.43 11.81 11.81 64 1011.4
20260504032018 11 0.0 3.2 0.36 11.73 11.73 66 1011.3
20260504031041 11 0.0 4.8 0.30 11.68 11.68 67 1011.4
20260504030018 10 158 1.6 8.0 0.18 11.56 11.56 69 1011.4
20260504025020 10 0.0 1.6 0.08 11.46 11.46 72 1011.5
20260504024038 10 0.0 4.8 0.05 11.43 11.43 73 1011.6
20260504023038 10 0.0 1.6 0.00 11.38 11.38 74 1011.4
20260504022020 10 0.0 4.8 0.00 11.38 11.38 75 1011.4
20260504021020 9 0.0 3.2 0.00 11.38 11.38 77 1011.4
20260504020040 9 0.0 3.2 0.00 11.38 11.38 77 1011.5
20260504015020 8 0.0 1.6 0.00 11.38 11.38 78 1011.5
20260504014020 8 0.0 1.6 0.00 11.38 11.38 78 1011.6
20260504013020 8 0.0 3.2 0.00 11.38 11.38 79 1011.6
20260504012018 8 0.0 1.6 0.00 11.38 11.38 79 1011.6
20260504011019 8 0.0 1.6 0.00 11.38 11.38 79 1011.6
20260504010020 9 0.0 1.6 0.00 11.38 11.38 79 1011.7
20260504005020 9 0.0 1.6 0.00 11.38 11.38 78 1011.7
20260504004020 9 0.0 1.6 0.00 11.38 11.38 77 1011.7
20260504003018 10 0.0 1.6 0.00 11.38 11.38 76 1011.6
20260504002020 10 0.0 1.6 0.00 11.38 11.38 75 1011.5
20260504001020 10 0.0 1.6 0.00 11.38 11.38 75 1011.5
20260504000020 10 0.0 1.6 0.00 11.38 11.38 74 1011.6
20260503235020 10 0.0 1.6 0.00 11.38 11.38 73 1011.6
20260503234018 10 0.0 1.6 0.00 11.38 11.38 73 1011.6
20260503233020 10 0.0 1.6 0.10 11.38 11.38 72 1011.6
20260503232020 10 203 1.6 14.5 0.13 11.38 11.38 73 1011.8
20260503231020 10 0.0 1.6 0.46 11.38 11.38 73 1012.0
20260503230018 10 225 1.6 16.1 0.76 11.38 11.38 72 1012.2
20260503225040 10 225 12.9 24.1 1.40 11.38 11.38 71 1012.5
20260503224020 10 0 17.7 35.4 1.60 11.38 11.38 69 1012.7
20260503223022 11 0 12.9 33.8 1.91 11.28 11.28 68 1012.9
20260503222018 11 225 22.5 33.8 2.01 11.25 11.25 66 1012.8
20260503221020 11 0 19.3 35.4 2.01 10.92 10.92 64 1012.9
20260503220020 13 0 22.5 38.6 1.91 10.62 10.62 60 1012.7
20260503215139 14 0 14.5 32.2 1.42 9.98 9.98 47 1012.5
20260503214020 14 225 14.5 29.0 1.42 9.78 9.78 47 1012.3
20260503213019 15 0 8.0 22.5 1.22 9.37 9.37 46 1012.3
20260503212040 14 225 14.5 35.4 2.24 9.25 9.25 45 1012.5
20260503211020 15 225 17.7 32.2 1.98 8.92 8.92 44 1012.6
20260503210020 15 0 14.5 32.2 2.97 8.71 8.71 45 1012.7
20260503205020 15 225 12.9 33.8 2.92 8.56 8.56 45 1012.8
20260503204019 15 0 19.3 30.6 3.43 8.36 8.36 44 1012.9
20260503203020 15 225 4.8 27.4 3.68 8.15 8.15 45 1013.0
20260503202020 15 0 8.0 30.6 3.00 7.01 7.01 45 1013.1
20260503201020 15 225 16.1 32.2 3.43 6.93 6.93 44 1013.3
20260503200020 15 0 14.5 30.6 3.38 5.74 5.74 44 1013.5
20260503195020 15 225 1.6 4.8 4.50 5.64 5.64 44 1013.6
20260503194020 15 0 11.3 27.4 4.93 4.93 4.93 44 1013.7
20260503193020 15 0 3.2 22.5 4.47 4.47 4.47 44 1013.7
20260503192020 15 225 17.7 35.4 4.01 4.01 4.01 44 1013.9
20260503191020 15 0 8.0 22.5 3.51 3.51 3.51 43 1013.9
20260503190019 15 225 16.1 30.6 2.36 2.36 2.36 45 1014.1
20260503185020 15 0 17.7 32.2 1.14 1.14 1.14 43 1014.3
20260503184020 15 225 19.3 35.4 0.00 0.00 0.00 42 1014.5
20260503183020 15 225 6.4 27.4 0.00 0.00 0.00 44 1014.6
20260503182018 15 0 11.3 32.2 0.00 0.00 0.00 45 1014.7
20260503181020 14 0 16.1 27.4 0.00 0.00 0.00 44 1014.8
20260503180020 14 225 17.7 35.4 0.00 0.00 0.00 44 1015.0
20260503175018 14 0 8.0 27.4 0.00 0.00 0.00 46 1015.1
20260503174040 14 225 14.5 29.0 0.00 0.00 0.00 43 1015.3
20260503173019 14 225 8.0 30.6 0.00 0.00 0.00 46 1015.3
20260503172019 14 225 4.8 17.7 0.00 0.00 0.00 48 1015.4
20260503171018 14 225 14.5 33.8 0.00 0.00 0.00 45 1015.6